Location: Casablanca
(28.3167°N, 16.3833°W)
Time: 21:46:56
(UTC+00:00)

Daily predictions for brighter satellites

Satellite Brightness Start Highest point End
(mag) Time Altitude Azimuth Time Altitude Azimuth Time Altitude Azimuth
CZ-2C R/B 4.4 19:17:47 10° ENE 19:19:22 11° E 19:20:57 10° ESE
Okean O Rocket 3.9 19:15:31 10° SSW 19:19:27 31° W 19:23:24 10° NW
Cosmos 1975 Rocket 3.2 19:18:03 10° N 19:22:14 49° E 19:26:24 10° SSE
Meteor 1-21 4.2 19:18:51 10° N 19:24:23 63° E 19:29:55 10° SSE
Milstar 3 Cent rocket 3.1 19:15:48 10° WSW 19:26:52 69° SSE 19:32:33 10° E
ATLAS 5 CENTAUR R/B 3.8 19:24:08 10° N 19:28:18 41° ENE 19:42:16 10° SE
H-2A R/B 3.2 19:26:11 10° ESE 19:29:45 20° ENE 19:33:23 10° NNE
COSMO-SKYMED 1 4.0 19:27:57 10° N 19:32:04 44° WNW 19:36:11 10° SSW
Cosmos 1939 Rocket 2.9 19:28:49 10° SSE 19:32:55 85° ENE 19:37:05 10° N
GPS 2-17 Rocket1 4.4 19:31:50 10° SW 19:35:39 27° S 19:39:27 11° ESE
Cosmos 1844 Rocket 2.8 19:34:08 10° SSW 19:39:40 81° WNW 19:45:16 10° NNE
Centaur AC-119 4.4 19:39:44 10° S 19:40:29 10° S 19:41:09 10° SSE
USA 116 3.8 19:37:56 10° NNE 19:41:56 77° ESE 19:46:27 10° S
Cosmos 1842 4.2 19:38:37 10° NNW 19:42:23 51° W 19:46:09 10° S
Cosmos 1072 Rocket 4.5 19:36:25 10° S 19:42:37 80° E 19:48:57 10° N
CZ-2C R/B 1.7 19:39:07 10° WNW 19:42:46 41° NNE 19:45:20 16° E
USA 234 4.4 19:38:26 10° ENE 19:43:03 20° ESE 19:47:39 10° SSE
Cosmos 2278 Rocket 3.6 19:41:03 10° SE 19:44:11 15° E 19:46:16 13° ENE
Cosmos 1707 2.9 19:41:34 10° N 19:45:16 46° E 19:48:57 10° SSE
Cosmos 1844 3.7 19:41:36 10° SSW 19:47:20 88° WNW 19:53:00 10° NNE
Cosmos 2034 Rocket 4.1 19:43:58 10° SSE 19:50:09 57° E 19:56:21 10° NNE
Cosmos 1300 Rocket 3.6 19:47:09 10° S 19:51:31 82° W 19:55:58 10° N
Meteor 1-12 Rocket 4.5 19:45:50 10° S 19:51:46 81° W 19:57:37 10° N
Exosat Rocket 3.7 19:45:56 10° S 19:52:13 69° ESE 19:57:16 10° NNE
NOSS 3-4 (A) 3.2 19:48:48 10° SSW 19:54:37 74° ESE 20:00:37 10° NNE
NOSS 3-4 (C) 3.2 19:48:55 10° SSW 19:54:44 73° ESE 20:00:43 10° NNE
Okean 1 Rocket 3.9 19:51:06 10° SSE 19:54:56 29° E 19:58:48 10° NNE
Helios 1A Rocket 4.4 19:59:28 10° S 20:03:17 39° W 20:07:09 10° NNW
Cosmos 1766 4.0 20:00:51 10° SSE 20:04:13 29° E 20:07:37 10° NNE
Okean 2 Rocket 4.0 20:02:01 10° SSW 20:06:23 51° W 20:10:45 10° N
CSL-04 Debris 4.1 20:01:22 10° SSE 20:06:41 66° ENE 20:12:01 10° N
YAOGAN 1 2.7 20:02:37 10° S 20:06:55 78° W 20:11:15 10° NNW
DELTA 2 R/B (1) 4.0 20:01:58 10° WNW 20:07:25 59° SW 20:11:29 18° SE
CSL-04 Rocket 3.6 20:03:12 10° SSE 20:08:32 65° ENE 20:13:58 10° N
Cosmos 1025 Rocket 2.9 20:12:08 10° N 20:16:32 82° E 20:20:55 10° S
ATLAS 2AS CENTAUR R/B 3.0 20:08:50 10° SSW 20:16:39 88° WNW 20:24:39 10° NNE
Cosmos 1634 Rocket 4.3 20:12:19 10° SSE 20:17:55 38° E 20:23:33 10° NNE
CENTAUR R/B 3.8 20:10:56 10° N 20:18:32 36° NE 20:22:00 27° E
CZ-4 R/B 3.1 20:19:33 10° SSW 20:23:26 36° W 20:27:18 10° NNW
Cosmos 1536 Rocket 3.4 20:22:09 10° N 20:26:37 78° E 20:29:45 19° S
SJ-11-01 4.3 20:22:17 10° S 20:27:00 85° WSW 20:31:43 10° NNW
CZ-2C R/B 3.5 20:25:07 10° S 20:30:14 64° W 20:35:42 10° NNW
Gbstr 26 Del rocket 4.1 20:25:07 10° SSW 20:31:15 59° SE 20:35:23 27° ENE
Cosmos 1674 3.6 20:32:43 10° N 20:35:09 36° NNE 20:35:09 36° NNE
GOES 2 Rocket 2.8 20:39:09 10° W 20:43:16 84° WSW 20:43:16 84° WSW
ARGOS 3.1 20:42:58 24° S 20:46:19 84° WSW 20:51:42 10° NNW
Cosmos 2026 Rocket 4.4 20:41:39 10° N 20:46:52 42° ENE 20:46:52 42° ENE
USA 238 DEB 3.8 20:40:32 10° NNW 20:47:55 76° ENE 20:50:45 42° SE
Cosmos 1092 Rocket 3.9 20:41:50 10° N 20:47:57 62° E 20:49:00 54° SE
USA 238 3.8 20:40:38 10° NNW 20:48:02 76° ENE 20:50:48 43° SE
CZ-2C R/B 3.0 20:54:22 10° N 20:59:56 67° WNW 21:05:29 10° SSW
SL-08 RB Rocket 4.3 21:05:59 53° NW 21:05:59 53° NW 21:09:36 10° NNW
Ariane Rocket 3.5 21:08:19 50° N 21:08:19 50° N 21:12:02 10° NNW
H-2A R/B 3.6 21:04:31 10° SSW 21:08:53 32° W 21:13:22 10° NW
DMSP B5D2-2 4.5 21:03:51 10° N 21:09:04 62° WNW 21:14:14 10° SSW
Cosmos 494 Rocket 4.2 21:05:05 10° NNW 21:09:57 68° WNW 21:09:57 68° WNW
NOSS 3-2 (A) 4.3 21:04:32 10° NW 21:12:34 70° WSW 21:16:23 37° S
CZ-2C R/B 4.0 21:18:58 10° WNW 21:19:42 15° W 21:19:42 15° W
USA 234 3.3 21:25:40 71° N 21:26:15 76° NW 21:32:46 10° SW
Cosmos 2278 Rocket 2.9 21:22:17 10° SW 21:27:44 50° WNW 21:33:13 10° N
Intelsat 5-1 Rocket 4.1 21:25:39 10° WSW 21:39:18 52° SSW 21:39:18 52° SSW
NOSS 3-2 (C) 4.4 21:42:54 10° NW 21:50:54 62° WSW 21:51:08 62° WSW
Milstar 3 Cent rocket 4.2 21:58:55 10° W 22:01:30 24° W 22:01:30 24° W
CENTAUR R/B 3.8 22:01:18 10° NW 22:09:14 50° WSW 22:09:14 50° WSW
ATLAS 3B R/B 4.5 22:14:40 10° NNW 22:17:06 24° NNW 22:17:06 24° NNW
